When you browse on this site, cookies collect data to enhance your experience and personalize the content and advertising you see.
Visit our Privacy Policy to learn more. By continuing to use the site, you agree to this use of cookies and data.

Previsão horária em Aaruti

Hoje, 27 Setembro, Domingo

Tempo Temperatura Precipitação Vento Pressão Humidade
00:00 +5°C° 0.3 mm 4 m/s 710 mmHg 93%
01:00 +5°C° 0 mm 4 m/s 710 mmHg 93%
02:00 +5°C° 0.3 mm 4 m/s 709 mmHg 93%
03:00 +5°C° 0.3 mm 4 m/s 709 mmHg 93%
04:00 +5°C° 0.3 mm 4 m/s 709 mmHg 93%
05:00 +4°C° 0.1 mm 4 m/s 709 mmHg 92%
06:00 +4°C° 0.1 mm 3 m/s 709 mmHg 92%
07:00 +5°C° 0 mm 3 m/s 708 mmHg 92%
08:00 +7°C° 0 mm 3 m/s 708 mmHg 86%
09:00 +7°C° 0 mm 4 m/s 708 mmHg 80%
10:00 +8°C° 0 mm 4 m/s 708 mmHg 74%
11:00 +10°C° 0 mm 4 m/s 709 mmHg 69%
12:00 +11°C° 0 mm 4 m/s 709 mmHg 64%
13:00 +12°C° 0 mm 3 m/s 709 mmHg 61%
14:00 +12°C° 0 mm 3 m/s 709 mmHg 62%
15:00 +12°C° 0 mm 3 m/s 709 mmHg 62%
16:00 +12°C° 0 mm 3 m/s 709 mmHg 63%
17:00 +10°C° 0 mm 2 m/s 710 mmHg 70%
18:00 +8°C° 0 mm 2 m/s 710 mmHg 76%
19:00 +8°C° 0 mm 1 m/s 711 mmHg 83%
20:00 +8°C° 0 mm 1 m/s 711 mmHg 83%
21:00 +7°C° 0 mm 0 m/s 711 mmHg 82%
22:00 +7°C° 0 mm 0 m/s 712 mmHg 82%
23:00 +6°C° 0 mm 0 m/s 712 mmHg 84%

Amanhã, 28 Setembro, Segunda-feira

Tempo Temperatura Precipitação Vento Pressão Humidade
00:00 +6°C° 0 mm 0 m/s 712 mmHg 87%
01:00 +5°C° 0 mm 0 m/s 712 mmHg 89%
02:00 +5°C° 0 mm 0 m/s 712 mmHg 90%
03:00 +4°C° 0 mm 0 m/s 712 mmHg 92%
04:00 +4°C° 0 mm 0 m/s 711 mmHg 93%
05:00 +4°C° 0 mm 0 m/s 712 mmHg 91%
06:00 +5°C° 0 mm 0 m/s 712 mmHg 90%
07:00 +5°C° 0 mm 0 m/s 713 mmHg 88%
08:00 +7°C° 0 mm 0 m/s 713 mmHg 81%
09:00 +9°C° 0 mm 0 m/s 713 mmHg 74%
10:00 +11°C° 0 mm 0 m/s 713 mmHg 67%
11:00 +13°C° 0 mm 0 m/s 714 mmHg 62%
12:00 +15°C° 0 mm 1 m/s 714 mmHg 56%
13:00 +18°C° 0 mm 1 m/s 714 mmHg 51%
14:00 +16°C° 0 mm 1 m/s 714 mmHg 52%
15:00 +16°C° 0 mm 1 m/s 714 mmHg 53%
16:00 +15°C° 0 mm 1 m/s 714 mmHg 53%
17:00 +13°C° 0 mm 1 m/s 715 mmHg 62%
18:00 +11°C° 0 mm 1 m/s 715 mmHg 71%
19:00 +10°C° 0 mm 1 m/s 715 mmHg 79%
20:00 +10°C° 0.1 mm 1 m/s 716 mmHg 82%
21:00 +10°C° 0.1 mm 1 m/s 716 mmHg 85%
22:00 +10°C° 0.1 mm 1 m/s 717 mmHg 88%
23:00 +10°C° 0.3 mm 1 m/s 717 mmHg 91%

Depois de amanhã, 29 Setembro, Terça-feira

Tempo Temperatura Precipitação Vento Pressão Humidade
00:00 +10°C° 0.3 mm 1 m/s 717 mmHg 93%
01:00 +10°C° 0.3 mm 1 m/s 717 mmHg 96%
02:00 +10°C° 0.4 mm 1 m/s 717 mmHg 96%
03:00 +9°C° 0.4 mm 2 m/s 717 mmHg 96%
04:00 +9°C° 0.4 mm 2 m/s 717 mmHg 96%
05:00 +9°C° 0.4 mm 2 m/s 718 mmHg 96%
06:00 +9°C° 0.4 mm 2 m/s 718 mmHg 96%
07:00 +9°C° 0.4 mm 2 m/s 718 mmHg 97%
08:00 +10°C° 0.3 mm 2 m/s 718 mmHg 96%
09:00 +10°C° 0.3 mm 2 m/s 718 mmHg 96%
10:00 +10°C° 0.3 mm 2 m/s 719 mmHg 96%
11:00 +10°C° 0.2 mm 2 m/s 719 mmHg 95%
12:00 +10°C° 0.2 mm 2 m/s 719 mmHg 94%
13:00 +10°C° 0.2 mm 2 m/s 719 mmHg 94%
14:00 +11°C° 0 mm 1 m/s 719 mmHg 93%
15:00 +11°C° 0 mm 1 m/s 719 mmHg 93%
16:00 +11°C° 0 mm 1 m/s 719 mmHg 92%
17:00 +10°C° 0 mm 0 m/s 719 mmHg 92%
18:00 +9°C° 0 mm 0 m/s 719 mmHg 93%
19:00 +9°C° 0 mm 0 m/s 719 mmHg 93%
20:00 +9°C° 0 mm 0 m/s 719 mmHg 94%
21:00 +8°C° 0 mm 0 m/s 719 mmHg 94%
22:00 +8°C° 0 mm 0 m/s 719 mmHg 95%
23:00 +7°C° 0 mm 0 m/s 719 mmHg 95%

30 Setembro, Quarta-feira

Tempo Temperatura Precipitação Vento Pressão Humidade
00:00 +7°C° 0 mm 0 m/s 719 mmHg 95%
01:00 +7°C° 0 mm 0 m/s 719 mmHg 95%
02:00 +7°C° 0 mm 0 m/s 718 mmHg 94%
03:00 +7°C° 0 mm 0 m/s 718 mmHg 94%
04:00 +7°C° 0 mm 0 m/s 718 mmHg 94%
05:00 +7°C° 0 mm 0 m/s 718 mmHg 95%
06:00 +7°C° 0 mm 0 m/s 718 mmHg 95%
07:00 +7°C° 0 mm 0 m/s 718 mmHg 95%
08:00 +9°C° 0 mm 0 m/s 718 mmHg 89%
09:00 +11°C° 0 mm 0 m/s 718 mmHg 84%
10:00 +13°C° 0 mm 0 m/s 718 mmHg 78%
11:00 +15°C° 0 mm 0 m/s 717 mmHg 70%
12:00 +16°C° 0 mm 0 m/s 717 mmHg 63%
13:00 +20°C° 0 mm 1 m/s 717 mmHg 55%
14:00 +20°C° 0 mm 1 m/s 717 mmHg 56%
15:00 +19°C° 0 mm 1 m/s 716 mmHg 57%
16:00 +19°C° 0 mm 1 m/s 716 mmHg 58%
17:00 +16°C° 0 mm 1 m/s 715 mmHg 67%
18:00 +12°C° 0 mm 0 m/s 715 mmHg 75%
19:00 +10°C° 0 mm 0 m/s 715 mmHg 84%
20:00 +10°C° 0 mm 0 m/s 715 mmHg 86%
21:00 +9°C° 0 mm 0 m/s 715 mmHg 88%
22:00 +9°C° 0 mm 0 m/s 715 mmHg 90%
23:00 +8°C° 0 mm 0 m/s 714 mmHg 91%

1 Outubro, Quinta-feira

Tempo Temperatura Precipitação Vento Pressão Humidade
00:00 +8°C° 0 mm 0 m/s 714 mmHg 92%
01:00 +8°C° 0 mm 0 m/s 713 mmHg 93%
02:00 +8°C° 0 mm 0 m/s 713 mmHg 93%
03:00 +8°C° 0 mm 0 m/s 713 mmHg 94%
04:00 +7°C° 0 mm 0 m/s 712 mmHg 94%
05:00 +8°C° 0 mm 0 m/s 712 mmHg 94%
06:00 +8°C° 0 mm 0 m/s 711 mmHg 94%
07:00 +8°C° 0 mm 0 m/s 711 mmHg 94%
08:00 +10°C° 0 mm 0 m/s 711 mmHg 87%
09:00 +12°C° 0 mm 0 m/s 711 mmHg 81%
10:00 +14°C° 0 mm 0 m/s 711 mmHg 75%
11:00 +16°C° 0 mm 1 m/s 710 mmHg 71%
12:00 +17°C° 0 mm 2 m/s 710 mmHg 67%
13:00 +18°C° 0 mm 2 m/s 710 mmHg 64%
14:00 +17°C° 0.2 mm 3 m/s 710 mmHg 67%
15:00 +15°C° 0.2 mm 4 m/s 710 mmHg 71%
16:00 +14°C° 0.2 mm 5 m/s 710 mmHg 74%
17:00 +13°C° 0.5 mm 4 m/s 710 mmHg 80%
18:00 +11°C° 0.5 mm 4 m/s 711 mmHg 87%
19:00 +10°C° 0.5 mm 3 m/s 711 mmHg 93%
20:00 +10°C° 0.2 mm 2 m/s 711 mmHg 93%
21:00 +9°C° 0.2 mm 2 m/s 712 mmHg 94%
22:00 +10°C° 0.2 mm 1 m/s 712 mmHg 95%
23:00 +9°C° 0 mm 1 m/s 712 mmHg 95%

2 Outubro, Sexta-feira

Tempo Temperatura Precipitação Vento Pressão Humidade
00:00 +9°C° 0 mm 1 m/s 711 mmHg 95%
01:00 +9°C° 0 mm 1 m/s 711 mmHg 94%
02:00 +9°C° 0 mm 1 m/s 711 mmHg 94%
03:00 +8°C° 0 mm 1 m/s 710 mmHg 94%
04:00 +7°C° 0 mm 0 m/s 710 mmHg 93%
05:00 +7°C° 0 mm 0 m/s 709 mmHg 93%
06:00 +7°C° 0 mm 0 m/s 709 mmHg 93%
07:00 +8°C° 0 mm 1 m/s 708 mmHg 93%
08:00 +10°C° 0 mm 1 m/s 708 mmHg 87%
09:00 +12°C° 0 mm 1 m/s 708 mmHg 80%
10:00 +14°C° 0 mm 1 m/s 707 mmHg 73%
11:00 +15°C° 0 mm 1 m/s 707 mmHg 67%
12:00 +16°C° 0 mm 1 m/s 706 mmHg 61%
13:00 +18°C° 0 mm 1 m/s 706 mmHg 54%
14:00 +18°C° 0 mm 1 m/s 705 mmHg 57%
15:00 +18°C° 0 mm 1 m/s 705 mmHg 60%
16:00 +15°C° 0 mm 0 m/s 704 mmHg 63%
17:00 +14°C° 0 mm 0 m/s 704 mmHg 68%
18:00 +13°C° 0 mm 0 m/s 703 mmHg 73%
19:00 +11°C° 0 mm 0 m/s 703 mmHg 78%
20:00 +11°C° 0.1 mm 0 m/s 702 mmHg 79%
21:00 +12°C° 0.1 mm 1 m/s 702 mmHg 81%
22:00 +11°C° 0.1 mm 1 m/s 702 mmHg 82%
23:00 +11°C° 0 mm 1 m/s 701 mmHg 82%
Mostrar mais